Weather History for College Station, TX

Change the Weather History Date:

Thursday, November 8, 2012

  Actual Average Record
Temperature  
Mean Temperature 69 °F 64 °F  
Max Temperature 83 °F 74 °F 89 °F (1989)
Min Temperature 54 °F 53 °F 30 °F (1959)
Degree Days  
Heating Degree Days 0 4  
Month to date heating degree days 3 28  
Since 1 July heating degree days 59 65  
Cooling Degree Days 4 3  
Month to date cooling degree days 38 27  
Year to date cooling degree days 3523 3039  
Growing Degree Days 18 (Base 50)    
Moisture  
Dew Point 54 °F    
Average Humidity 65    
Maximum Humidity 86    
Minimum Humidity 43    
Precipitation  
Precipitation 0.00 in 0.11 in 3.38 in (1929)
Month to date precipitation 0.03 0.91  
Year to date precipitation 36.95 34.52  
Sea Level Pressure  
Sea Level Pressure 30.09 in    
Wind  
Wind Speed 9 mph (SSE)    
Max Wind Speed 22 mph    
Max Gust Speed 28 mph    
Visibility 10 miles    
Events      
T = Trace of Precipitation, MM = Missing Value Source: NWS Daily Summary

Daily Weather History Graph

Daily Weather History Graph

Search for Another Location

Airport:

Trip Planner

Search our weather history database for the weather conditions in past years. The results will help you decide how hot, cold, wet, or windy it might be!

Date:

Astronomy

Nov. 08, 2012 Rise Set
Actual Time 6:46 AM CST 5:31 PM CST
Civil Twilight 6:20 AM CST 5:57 PM CST
Nautical Twilight 5:52 AM CST 6:25 PM CST
Astronomical Twilight 5:23 AM CST 6:54 PM CST
Moon 1:06 AM CST (11/8) 1:52 PM CST (11/8)
Length of Visible Light 11h 36m
Length of Day
10h 45m
Waning Crescent, 32% of the Moon is Illuminated
Nov 8
Waning Crescent
Nov 13
New
Nov 20
First Quarter
Nov 28
Full
Dec 6
Last Quarter

Hourly Weather History & Observations

Time (CST) Temp. Heat Index Dew Point Humidity Pressure Visibility Wind Dir Wind Speed Gust Speed Precip Events Conditions
12:53 AM 57.9 °F - 43.0 °F 58% 30.09 in 10.0 mi SE 4.6 mph - N/A   Clear
1:53 AM 57.0 °F - 45.0 °F 64% 30.09 in 10.0 mi ESE 4.6 mph - N/A   Clear
2:53 AM 55.9 °F - 46.9 °F 72% 30.09 in 10.0 mi East 3.5 mph - N/A   Clear
3:53 AM 55.0 °F - 48.0 °F 77% 30.09 in 10.0 mi Calm Calm - N/A   Clear
4:53 AM 54.0 °F - 48.9 °F 83% 30.10 in 10.0 mi East 3.5 mph - N/A   Clear
5:53 AM 55.0 °F - 50.0 °F 83% 30.12 in 10.0 mi SE 3.5 mph - N/A   Clear
6:53 AM 55.9 °F - 52.0 °F 87% 30.13 in 10.0 mi ESE 3.5 mph - N/A   Clear
7:53 AM 61.0 °F - 53.1 °F 75% 30.15 in 10.0 mi SE 5.8 mph - N/A   Clear
8:53 AM 66.9 °F - 54.0 °F 63% 30.17 in 10.0 mi SE 9.2 mph - N/A   Clear
9:53 AM 72.0 °F - 55.9 °F 57% 30.16 in 10.0 mi SSE 10.4 mph - N/A   Clear
10:53 AM 75.0 °F - 57.9 °F 55% 30.15 in 10.0 mi South 12.7 mph - N/A   Clear
11:53 AM 78.1 °F - 59.0 °F 52% 30.12 in 10.0 mi South 15.0 mph 23.0 mph N/A   Clear
12:53 PM 80.1 °F 80.7 °F 59.0 °F 48% 30.08 in 10.0 mi South 13.8 mph 19.6 mph N/A   Clear
1:53 PM 82.0 °F 82.0 °F 57.9 °F 44% 30.05 in 10.0 mi SSE 16.1 mph 23.0 mph N/A   Partly Cloudy
2:53 PM 82.0 °F 81.7 °F 57.0 °F 42% 30.03 in 10.0 mi South 13.8 mph 25.3 mph N/A   Partly Cloudy
3:53 PM 82.0 °F 81.7 °F 57.0 °F 42% 30.02 in 10.0 mi South 16.1 mph 26.5 mph N/A   Partly Cloudy
4:53 PM 79.0 °F - 57.0 °F 47% 30.02 in 10.0 mi SSE 10.4 mph - N/A   Clear
5:53 PM 78.1 °F - 57.0 °F 48% 30.03 in 10.0 mi South 16.1 mph - N/A   Clear
6:53 PM 73.9 °F - 57.0 °F 55% 30.05 in 10.0 mi South 11.5 mph - N/A   Clear
7:53 PM 72.0 °F - 55.9 °F 57% 30.06 in 10.0 mi South 12.7 mph - N/A   Clear
8:53 PM 69.1 °F - 57.0 °F 65% 30.07 in 10.0 mi SSE 12.7 mph - N/A   Clear
9:53 PM 66.9 °F - 57.0 °F 70% 30.08 in 10.0 mi SSE 6.9 mph - N/A   Clear
10:53 PM 64.9 °F - 57.9 °F 78% 30.08 in 10.0 mi SSE 9.2 mph - N/A   Clear
11:53 PM 64.0 °F - 59.0 °F 84% 30.06 in 10.0 mi SSE 8.1 mph - N/A   Clear